Skip Page Navigation
NASA JPL Caltech
NASA Logo - Jet Propulsion Laboratory + View the NASA Portal
+ Near-Earth Object (NEO) Program
Search JPL
JPL Home Earth Solar System Stars & Galaxies Technology
JPL Solar System Dynamics
BODIES ORBITS EPHEMERIDES TOOLS PHYSICAL DATA DISCOVERY FAQ SITE MAP
JPL Small-Body Database Browser
Search: [ help ]  
7968 Elst-Pizarro (1996 N2)
Classification: Main-belt Asteroid          SPK-ID: 2007968
Ephemeris | Orbit Diagram | Orbital Elements | Physical Parameters | Discovery Circumstances | Close-Approach Data ]

[ hide orbit diagram ]
Orbit Diagram
Note: Make sure you have Java enabled on your browser to see the applet. This applet is provided as a 3D orbit visualization tool. The applet was implemented using 2-body methods, and hence should not be used for determining accurate long-term trajectories (over several years or decades) or planetary encounter circumstances. For accurate long-term ephemerides, please instead use our Horizons system.
Orbit Viewer

Additional Notes: the orbits shown in the applet are color coded. The planets are white lines, and the asteroid/comet is a blue line. The bright white line indicates the portion of the orbit that is above the ecliptic plane, and the darker portion is below the ecliptic plane. Likewise for the asteroid/comet orbit, the light blue indicates the portion above the ecliptic plane, and the dark blue the portion below the ecliptic plane.

Orbit Viewer applet originally written and kindly provided by Osamu Ajiki (AstroArts), and further modified by Ron Baalke (JPL).


Orbital Elements at Epoch 2456400.5 (2013-Apr-18.0) TDB
Reference: JPL 47 (heliocentric ecliptic J2000)
 Element Value Uncertainty (1-sigma)   Units 
e .161502792433756 9.2038e-08  
a 3.160376729840947 4.1415e-08 AU
q 2.649967062828972 3.1224e-07 AU
i 1.38684405912855 8.3025e-06 deg
node 160.148967920276 0.00033949 deg
peri 132.1516262053445 0.00034228 deg
M 11.94064655271349 3.5668e-05 deg
tp 2456332.433714276530
(2013-Feb-08.93371428)
0.00020282 JED
period 2052.138697203184
5.62
4.0338e-05
1.104e-07
d
yr
n .1754267391822182 3.4483e-09 deg/d
Q 3.670786396852922 4.8104e-08 AU
  Orbit Determination Parameters
   # obs. used (total)      562  
   data-arc span      12037 days (32.96 yr)  
   first obs. used      1979-07-24  
   last obs. used      2012-07-07  
   planetary ephem.      DE405  
   SB-pert. ephem.      SB405-CPV-2  
   condition code      0  
   fit RMS      .56334  
   data source      ORB  
   producer      Otto Matic  
   solution date      2012-Aug-06 14:26:20  

Additional Information
 Earth MOID = 1.63411 AU 
 T_jup = 3.184 
[ show covariance matrix ]

Ephemeris | Orbit Diagram | Orbital Elements | Physical Parameters | Discovery Circumstances | Close-Approach Data ]

Physical Parameter Table
Parameter Symbol Value Units Sigma Reference Notes
absolute magnitude H 14.0 mag n/a PDS3 (MPC 30751)  
rotation period rot_per 3.471 h n/a Asteroid Lightcurve DataBase (Rev. 2013-May-01) Published Reference List:
[Hsieh, H.H.; Jewitt, D.C.; Fernandez, Y.R. (2004) Astron. J. 127, 2997-3017.]

7968 Elst-Pizarro (1996 N2)          Discovered 1996-Jul-14 by Elst, E. W., Pizarro, G. at La Silla (809)
Reference: DISCOVERY.DBLast Updated: 2003-08-29

[ show close-approach data ]
Alternate Designations
 1996 N2 = 133P = 1979 OW7 
Ephemeris | Orbit Diagram | Orbital Elements | Physical Parameters | Discovery Circumstances | Close-Approach Data ]
ABOUT SSD CREDITS/AWARDS PRIVACY/COPYRIGHT GLOSSARY LINKS
FirstGov 2013-May-21 10:56 UT
(server date/time)  
NASA Home Page
Site Manager:   Donald K. Yeomans
Webmaster  Alan B. Chamberlin